User: anonymous   Login
Location: Tamazert
(32.6352°N, 5.2072°W)
Time: 12:31:14
(UTC+00:00)
Language:

Vanguard 2 - Orbit

View from above orbital plane
View from above orbital plane
View from above satellite
View from above satellite

Ground track
Ground track

The orbit data is extracted from the following two-line orbital elements,

1    11U 59001A   22271.14043413  .00000230  00000-0  10271-3 0  9990
2    11  32.8769 168.1526 1467330 273.6681  69.7859 11.86172235715592
Epoch (UTC): 28 September 2022 03:22:13
Eccentricity: 0.1467330
inclination: 32.8769°
perigee height: 551 km
apogee height: 2935 km
right ascension of ascending node: 168.1526°
argument of perigee: 273.6681°
revolutions per day: 11.86172235
mean anomaly at epoch: 69.7859°
orbit number at epoch: 71559

The dashed part of the orbit path shows where the satellite is in the earth's shadow,  

DLR